< Cyclone 198517 1986 Season Cyclone 198602 >
Cyclone 198601 (NICHOLAS)
General InformationTrack Information on Google MapsDetailed Wind InformationList of All Images || ResourceGoogle EarthGE AnimationAtom FeedGeoJSON
Detalied Best Track (Time Zone = UTC)
Year Month Day Hour Lat. Long. Pressure (hPa) Wind (kt) Class Image Chart
1985 11 26 00 -6.5 102.2 1005 21 2 Image --
1985 11 26 06 -6.7 102.2 1003 23 2 Image --
1985 11 26 12 -7.0 102.1 1003 23 2 Image --
1985 11 26 18 -7.3 102.0 1002 25 2 Image --
1985 11 27 00 -7.6 102.0 1002 25 2 Image --
1985 11 27 06 -7.9 101.9 1001 27 2 Image --
1985 11 27 12 -8.2 101.7 1001 27 2 Image --
1985 11 27 18 -8.4 101.3 1000 31 2 Image --
1985 11 28 00 -8.7 101.0 998 33 2 Image --
1985 11 28 06 -9.2 100.9 996 37 3 Image --
1985 11 28 12 -9.6 101.3 995 39 3 Image --
1985 11 28 18 -9.9 101.7 993 43 3 Image --
1985 11 29 00 -10.1 102.1 992 43 3 Image --
1985 11 29 06 -10.4 102.7 992 43 3 Image --
1985 11 29 12 -10.5 103.1 991 45 3 Image --
1985 11 29 18 -10.6 103.6 990 47 3 Image --
1985 11 30 00 -10.6 104.1 988 51 4 Image --
1985 11 30 06 -10.7 104.9 987 51 4 Image --
1985 11 30 12 -10.7 105.8 986 53 4 Image --
1985 11 30 18 -10.6 106.5 984 54 4 Image --
1985 12 1 00 -10.4 107.4 980 60 4 Image --
1985 12 1 06 -10.2 108.4 975 66 5 Image --
1985 12 1 12 -10.2 109.4 973 70 5 Image --
1985 12 1 18 -10.1 110.2 972 70 5 Image --
1985 12 2 00 -10.2 110.8 970 74 5 Image --
1985 12 2 06 -10.3 111.5 968 76 5 Image --
1985 12 2 12 -10.2 112.2 967 76 5 Image --
1985 12 2 18 -10.1 112.6 965 80 5 Image --
1985 12 3 00 -10.0 113.0 960 86 5 Image --
1985 12 3 06 -9.9 113.3 955 89 5 Image --
1985 12 3 12 -9.8 113.9 945 99 5 Image --
1985 12 3 18 -9.9 114.2 947 97 5 Image --
1985 12 4 00 -10.1 114.2 950 93 5 Image --
1985 12 4 06 -10.4 114.3 955 89 5 Image --
1985 12 4 12 -10.7 114.5 958 86 5 Image --
1985 12 4 18 -11.1 114.5 958 86 5 Image --
1985 12 5 00 -11.4 114.7 960 84 5 Image --
1985 12 5 06 -11.6 114.7 960 84 5 Image --
1985 12 5 12 -11.8 114.8 965 80 5 Image --
1985 12 5 18 -12.2 114.8 972 70 5 Image --
1985 12 6 00 -12.7 114.6 978 64 5 Image --
1985 12 6 06 -13.3 114.1 985 54 4 Image --
1985 12 6 12 -14.0 113.7 992 43 3 Image --
1985 12 6 18 -14.6 114.0 998 33 2 Image --
1985 12 7 00 -14.8 114.3 998 33 2 Image --
1985 12 7 06 -15.2 114.1 998 33 2 Image --
1985 12 7 12 -15.5 113.8 1002 25 2 Image --
< Cyclone 198517 1986 Season Cyclone 198602 >

Help